User: anonymous   Login
Location: Unspecified
(0.0000°N, 0.0000°E)
Time: 06:14:55
(UTC+00:00)
Language:

CBERS 2B - Orbit

View from above orbital plane
View from above orbital plane
View from above satellite
View from above satellite

Ground track
Ground track

The orbit data is extracted from the following two-line orbital elements,

1 32062U 07042A   18199.65053823 -.00000009  00000-0  97927-5 0  9995
2 32062  98.1005 218.6280 0032566  63.5396 296.9106 14.39674509568694
Epoch (UTC): 18 July 2018 15:36:46
Eccentricity: 0.0032566
inclination: 98.1005°
perigee height: 736 km
apogee height: 783 km
right ascension of ascending node: 218.6280°
argument of perigee: 63.5396°
revolutions per day: 14.39674509
mean anomaly at epoch: 296.9106°
orbit number at epoch: 56869

The dashed part of the orbit path shows where the satellite is in the earth's shadow,  

DLR